Date,TemperatureHighF,TemperatureAvgF,TemperatureLowF,DewpointHighF,DewpointAvgF,DewpointLowF,HumidityHigh,HumidityAvg,HumidityLow,PressureMaxIn,PressureMinIn,WindSpeedMaxMPH,WindSpeedAvgMPH,GustSpeedMaxMPH,PrecipitationSumIn
2013-7-1,87.2,74.9,63.0,0.0,0.0,0.0,0,0,100,0.00,0.00,9,1,18,0.00
2013-7-2,88.5,75.0,62.3,0.0,0.0,0.0,0,0,100,0.00,0.00,9,1,21,0.00
2013-7-3,93.6,75.5,58.1,0.0,0.0,0.0,0,0,100,0.00,0.00,3,0,13,0.00
2013-7-4,95.3,79.7,69.1,0.0,0.0,0.0,0,0,100,0.00,0.00,5,0,12,0.00
2013-7-5,95.8,80.9,66.8,0.0,0.0,0.0,0,0,100,0.00,0.00,3,0,10,0.00
2013-7-6,94.6,82.4,70.8,0.0,0.0,0.0,0,0,100,0.00,0.00,4,0,12,0.00
2013-7-7,95.6,83.9,72.3,0.0,0.0,0.0,0,0,100,0.00,0.00,4,0,13,0.00
2013-7-8,96.4,84.3,74.0,0.0,0.0,0.0,0,0,100,0.00,0.00,3,0,8,0.00
2013-7-9,97.2,86.3,77.2,0.0,0.0,0.0,0,0,100,0.00,0.00,4,0,14,0.00
2013-7-10,100.4,88.9,81.0,0.0,0.0,0.0,0,0,100,0.00,0.00,4,1,8,0.00
2013-7-11,102.9,86.4,76.4,0.0,0.0,0.0,0,0,100,0.00,0.00,8,0,18,0.00
2013-7-12,98.8,85.1,71.8,0.0,0.0,0.0,0,0,100,0.00,0.00,4,0,12,0.00
2013-7-13,100.1,85.6,74.2,0.0,0.0,0.0,0,0,100,0.00,0.00,5,0,13,0.00
2013-7-14,76.9,71.9,69.2,0.0,0.0,0.0,0,0,100,0.00,0.00,7,1,12,0.00
2013-7-15,75.0,70.8,66.9,0.0,0.0,0.0,0,0,100,0.00,0.00,4,0,10,0.00
2013-7-16,90.5,77.4,70.3,0.0,0.0,0.0,0,0,100,0.00,0.00,6,1,18,0.00
2013-7-17,91.2,79.0,70.0,0.0,0.0,0.0,0,0,100,0.00,0.00,6,1,14,0.00
2013-7-18,98.1,81.1,69.7,0.0,0.0,0.0,0,0,100,0.00,0.00,10,1,15,0.00
2013-7-19,93.6,77.0,70.8,0.0,0.0,0.0,0,0,100,0.00,0.00,10,1,18,0.00
2013-7-20,96.5,80.5,71.9,0.0,0.0,0.0,0,0,100,0.00,0.00,11,1,24,0.00
2013-7-21,93.4,83.1,72.6,0.0,0.0,0.0,0,0,100,0.00,0.00,4,1,10,0.00
2013-7-22,95.4,85.1,76.5,0.0,0.0,0.0,0,0,100,0.00,0.00,4,0,8,0.00
2013-7-23,95.9,86.5,78.3,0.0,0.0,0.0,0,0,100,0.00,0.00,3,0,12,0.00
2013-7-24,94.3,81.0,71.6,0.0,0.0,0.0,0,0,100,0.00,0.00,18,2,29,0.00
2013-7-25,95.0,81.6,68.3,0.0,0.0,0.0,0,0,100,0.00,0.00,3,0,11,0.00
2013-7-26,94.8,80.4,74.0,0.0,0.0,0.0,0,0,100,0.00,0.00,12,1,18,0.00
2013-7-27,90.5,77.9,69.4,0.0,0.0,0.0,0,0,100,0.00,0.00,8,1,14,0.00
2013-7-28,91.2,79.2,66.5,0.0,0.0,0.0,0,0,100,0.00,0.00,6,0,12,0.00
2013-7-29,94.6,83.7,75.4,0.0,0.0,0.0,0,0,100,0.00,0.00,4,0,8,0.00
2013-7-30,96.5,85.9,77.8,0.0,0.0,0.0,0,0,100,0.00,0.00,3,0,11,0.00
2013-7-31,101.2,87.9,78.5,0.0,0.0,0.0,0,0,100,0.00,0.00,4,0,11,0.00